EW9662 Weather Reports


Display with metric or nautical units.
time (UTC)temp
F
wind
direction
speed
MPH
gust
MPH
rain 1hr
in
rain 24hr
in
rain mn
in
humidity
%
barometer
mb
20260507132503 56 198 0.0 7.0 0.00 0.28 0.01 65 1008.6
20260507132003 56 125 2.0 7.0 0.00 0.28 0.01 64 1008.7
20260507131514 56 132 2.0 7.0 0.00 0.28 0.01 63 1008.7
20260507131009 56 112 2.0 7.0 0.00 0.28 0.01 66 1008.8
20260507130503 55 132 2.0 9.0 0.00 0.28 0.01 66 1008.8
20260507130011 55 198 3.0 9.0 0.00 0.28 0.01 64 1008.7
20260507125506 55 163 2.0 8.0 0.00 0.28 0.01 64 1008.7
20260507125006 55 161 1.0 8.0 0.00 0.28 0.01 66 1008.7
20260507124506 55 59 4.0 8.0 0.00 0.28 0.01 65 1008.7
20260507124006 55 119 2.0 8.0 0.00 0.28 0.01 66 1008.8
20260507123509 55 94 2.0 6.0 0.00 0.28 0.01 65 1008.8
20260507123006 54 111 0.0 8.0 0.00 0.28 0.01 70 1008.8
20260507122503 54 155 0.0 8.0 0.00 0.28 0.01 69 1008.9
20260507122006 53 162 1.0 5.0 0.00 0.28 0.01 69 1008.9
20260507121524 53 80 2.0 6.0 0.00 0.28 0.01 70 1008.9
20260507121004 53 123 3.0 6.0 0.00 0.28 0.01 69 1008.9
20260507120505 53 94 0.0 4.0 0.00 0.28 0.01 74 1008.8
20260507120021 53 160 0.0 5.0 0.00 0.28 0.01 72 1008.9
20260507115503 52 165 0.0 5.0 0.00 0.28 0.01 75 1008.9
20260507115003 51 117 2.0 4.0 0.00 0.28 0.01 75 1008.9
20260507114517 51 112 1.0 4.0 0.00 0.28 0.01 77 1008.9
20260507114006 51 98 1.0 3.0 0.00 0.28 0.01 77 1008.8
20260507113502 51 134 0.0 3.0 0.00 0.28 0.01 79 1008.6
20260507113014 50 111 0.0 4.0 0.00 0.28 0.01 80 1008.7
20260507112506 50 148 0.0 4.0 0.00 0.28 0.01 81 1008.7
20260507112003 49 91 0.0 3.0 0.00 0.28 0.01 81 1008.8
20260507111511 49 116 0.0 0.0 0.00 0.28 0.01 82 1008.7
20260507111006 49 116 0.0 0.0 0.00 0.28 0.01 84 1008.7
20260507110510 48 116 0.0 0.0 0.00 0.28 0.01 83 1008.6
20260507110006 48 116 0.0 0.0 0.00 0.28 0.01 84 1008.6
20260507105509 48 116 0.0 0.0 0.00 0.28 0.01 85 1008.6
20260507105007 48 116 0.0 0.0 0.00 0.28 0.01 84 1008.5
20260507104506 48 116 0.0 0.0 0.00 0.28 0.01 83 1008.5
20260507104005 48 116 0.0 0.0 0.00 0.28 0.01 83 1008.7
20260507103509 48 116 0.0 0.0 0.00 0.28 0.01 84 1008.3
20260507103029 48 116 0.0 1.0 0.00 0.28 0.01 83 1008.2
20260507102504 48 116 0.0 1.0 0.00 0.28 0.01 83 1007.9
20260507102006 48 115 0.0 1.0 0.00 0.28 0.01 84 1008.0
20260507101532 48 116 0.0 2.0 0.00 0.28 0.01 83 1007.8
20260507101011 48 115 0.0 2.0 0.00 0.28 0.01 83 1008.0
20260507100504 48 151 0.0 2.0 0.00 0.28 0.01 84 1007.9
20260507100021 48 151 1.0 2.0 0.00 0.28 0.01 84 1007.9
20260507095507 48 150 0.0 0.0 0.00 0.28 0.01 86 1007.9
20260507095004 48 150 0.0 0.0 0.00 0.28 0.01 87 1008.0
20260507094514 48 150 0.0 0.0 0.00 0.28 0.01 87 1007.9
20260507094010 48 150 0.0 0.0 0.00 0.28 0.01 87 1008.0
20260507093508 48 150 0.0 1.0 0.00 0.28 0.01 86 1007.9
20260507093010 48 150 0.0 1.0 0.00 0.28 0.01 84 1008.3
20260507092506 48 148 0.0 2.0 0.00 0.28 0.01 85 1008.3
20260507092006 48 144 0.0 2.0 0.00 0.28 0.01 85 1008.1
20260507091508 48 148 0.0 2.0 0.00 0.28 0.01 85 1008.2
20260507091003 48 145 0.0 1.0 0.00 0.28 0.01 86 1008.3
20260507090507 48 145 0.0 2.0 0.00 0.28 0.01 85 1008.3
20260507090024 48 139 1.0 2.0 0.00 0.28 0.01 85 1008.4
20260507085503 48 94 0.0 1.0 0.00 0.28 0.01 85 1008.3
20260507085007 48 136 0.0 1.0 0.00 0.28 0.01 86 1008.6
20260507084522 48 136 0.0 1.0 0.00 0.28 0.01 87 1008.6
20260507084012 48 136 0.0 1.0 0.00 0.28 0.01 87 1008.3
20260507083505 48 136 0.0 2.0 0.01 0.28 0.01 87 1008.2
20260507083020 48 137 0.0 2.0 0.01 0.28 0.01 86 1008.2
20260507082507 48 109 0.0 1.0 0.01 0.28 0.01 87 1008.3
20260507082005 48 109 0.0 1.0 0.01 0.28 0.01 88 1008.1
20260507081516 48 109 0.0 1.0 0.01 0.28 0.01 88 1008.0
20260507081007 48 109 0.0 1.0 0.01 0.28 0.01 89 1008.3
20260507080510 48 109 0.0 1.0 0.01 0.28 0.01 89 1008.2
20260507080015 48 109 0.0 1.0 0.01 0.28 0.01 88 1008.2
20260507075506 48 109 0.0 0.0 0.01 0.28 0.01 88 1008.3
20260507075009 48 109 0.0 0.0 0.01 0.28 0.01 87 1008.1
20260507074511 48 109 0.0 1.0 0.01 0.28 0.01 87 1008.0
20260507074004 48 109 0.0 1.0 0.01 0.28 0.01 85 1008.1
20260507073506 49 109 0.0 1.0 0.00 0.27 0.00 85 1008.3
20260507073024 49 109 0.0 1.0 0.00 0.27 0.00 82 1008.3
20260507072506 49 140 0.0 5.0 0.00 0.27 0.00 82 1008.3
20260507072007 49 140 0.0 5.0 0.00 0.27 0.00 83 1008.3
20260507071525 49 140 0.0 3.0 0.00 0.27 0.00 84 1008.1
20260507071002 49 169 0.0 7.0 0.00 0.27 0.00 82 1007.7
20260507070507 50 164 1.0 7.0 0.00 0.27 0.00 83 1007.5
20260507070038 50 114 1.0 3.0 0.00 0.27 0.00 83 1007.5
20260507065510 50 135 1.0 2.0 0.00 0.27 0.00 85 1007.5
20260507065006 50 132 0.0 2.0 0.00 0.27 0.00 85 1007.4
20260507064520 50 118 0.0 2.0 0.00 0.27 0.00 87 1007.5
20260507064008 50 112 0.0 1.0 0.00 0.27 0.00 87 1007.3
20260507063510 50 112 0.0 1.0 0.00 0.27 0.00 86 1007.3
20260507063017 50 112 0.0 1.0 0.00 0.27 0.00 85 1007.2
20260507062510 50 112 0.0 2.0 0.00 0.27 0.00 85 1007.6
20260507062009 50 111 0.0 2.0 0.00 0.27 0.00 84 1007.7
20260507061514 50 123 0.0 3.0 0.00 0.27 0.00 85 1007.6
20260507061006 51 138 0.0 3.0 0.00 0.27 0.00 85 1007.5
20260507060509 51 117 0.0 2.0 0.00 0.27 0.00 85 1007.5
20260507060027 51 148 1.0 2.0 0.00 0.27 0.00 87 1007.5
20260507055506 51 102 0.0 2.0 0.00 0.27 0.00 88 1007.6
20260507055011 51 102 0.0 2.0 0.00 0.27 0.00 89 1007.6
20260507054526 51 148 0.0 1.0 0.00 0.27 0.00 88 1007.5
20260507054004 51 148 0.0 1.0 0.00 0.27 0.00 87 1007.7
20260507053508 52 148 0.0 1.0 0.00 0.27 0.00 87 1007.9
20260507053026 52 148 0.0 2.0 0.00 0.27 0.00 87 1008.0
20260507052510 52 112 0.0 2.0 0.00 0.27 0.00 88 1008.2
20260507052007 52 111 0.0 2.0 0.00 0.27 0.00 90 1008.2
20260507051522 52 84 0.0 2.0 0.00 0.27 0.00 89 1007.8
20260507051008 52 105 0.0 1.0 0.00 0.27 0.00 89 1007.8
20260507050506 52 129 0.0 1.0 0.00 0.27 0.00 89 1007.7
20260507050028 53 159 0.0 0.0 0.00 0.27 0.00 89 1008.1
20260507045507 53 159 0.0 0.0 0.00 0.27 0.00 89 1008.1
20260507045007 53 159 0.0 0.0 0.00 0.27 0.00 88 1007.8
20260507044518 53 97 0.0 2.0 0.00 0.27 0.00 89 1007.9
20260507044010 53 87 0.0 2.0 0.01 0.27 0.00 88 1007.7
20260507043507 54 87 0.0 6.0 0.02 0.27 0.00 88 1007.7
20260507043028 54 107 0.0 6.0 0.02 0.27 0.00 88 1007.7
20260507042508 54 105 0.0 2.0 0.02 0.27 0.00 91 1007.6
20260507042014 54 135 0.0 1.0 0.02 0.27 0.00 91 1007.5
20260507041527 55 135 0.0 2.0 0.02 0.27 0.00 91 1007.5
20260507041004 55 135 0.0 2.0 0.02 0.27 0.00 91 1007.6
20260507040509 55 90 0.0 1.0 0.02 0.27 0.00 91 1007.7
20260507040027 55 90 0.0 1.0 0.02 0.27 0.00 91 1007.7
20260507035508 55 94 0.0 0.0 0.02 0.27 0.27 90 1007.7
20260507035008 56 95 0.0 1.0 0.02 0.27 0.27 90 1007.6
20260507034525 56 95 0.0 3.0 0.02 0.27 0.27 89 1007.7
20260507034010 56 115 0.0 3.0 0.01 0.26 0.26 89 1007.3
20260507033506 57 98 0.0 2.0 0.00 0.25 0.25 89 1007.5
20260507033031 57 98 0.0 2.0 0.00 0.25 0.25 88 1007.4
20260507032513 57 102 0.0 3.0 0.00 0.25 0.25 89 1007.3
20260507032010 57 101 0.0 3.0 0.00 0.25 0.25 89 1007.2
20260507031527 57 106 0.0 2.0 0.00 0.25 0.25 90 1007.1
20260507031012 57 84 0.0 2.0 0.00 0.25 0.25 90 1006.9
20260507030510 57 148 0.0 2.0 0.00 0.25 0.25 90 1006.8
20260507030018 58 123 0.0 2.0 0.00 0.25 0.25 89 1006.8
20260507025508 58 131 0.0 2.0 0.00 0.25 0.25 89 1006.6
20260507025013 58 173 0.0 6.0 0.00 0.25 0.25 89 1006.6
20260507024529 58 132 1.0 8.0 0.00 0.25 0.25 89 1006.5
20260507024007 58 123 2.0 8.0 0.00 0.25 0.25 89 1006.5
20260507023509 59 124 2.0 5.0 0.00 0.25 0.25 90 1006.7
20260507023026 59 117 1.0 10.0 0.00 0.25 0.25 91 1006.6
20260507022507 59 92 2.0 10.0 0.00 0.25 0.25 92 1006.6
20260507022008 59 117 2.0 10.0 0.00 0.25 0.25 93 1006.7
20260507021526 59 57 1.0 5.0 0.00 0.25 0.25 93 1006.6
20260507021008 59 92 0.0 3.0 0.00 0.25 0.25 93 1006.4
20260507020508 59 90 0.0 4.0 0.00 0.25 0.25 93 1006.4
20260507020026 59 111 1.0 4.0 0.00 0.25 0.25 93 1006.2
20260507015514 59 94 1.0 3.0 0.00 0.25 0.25 93 1006.1
20260507015010 59 86 0.0 4.0 0.00 0.25 0.25 93 1006.2
20260507014527 59 96 1.0 6.0 0.00 0.25 0.25 93 1006.4
20260507014010 59 94 1.0 6.0 0.00 0.25 0.25 93 1006.4
20260507013508 59 83 2.0 7.0 0.00 0.25 0.25 93 1006.1
20260507013025 59 88 1.0 7.0 0.00 0.25 0.25 92 1006.1
20260507012510 59 82 1.0 5.0 0.00 0.25 0.25 92 1006.2
20260507012009 59 93 2.0 5.0 0.00 0.25 0.25 92 1006.2
20260507011534 59 99 0.0 2.0 0.00 0.25 0.25 92 1006.3
20260507011009 59 80 1.0 4.0 0.00 0.25 0.25 92 1006.4
20260507010510 59 98 1.0 4.0 0.01 0.25 0.25 92 1006.3
20260507010038 59 85 1.0 6.0 0.01 0.25 0.25 92 1006.3
20260507005508 59 93 1.0 8.0 0.01 0.25 0.25 92 1006.4
20260507005003 59 107 3.0 8.0 0.01 0.25 0.25 92 1006.4
20260507004508 59 101 2.0 8.0 0.01 0.25 0.25 92 1006.3
20260507004007 59 96 2.0 8.0 0.01 0.25 0.25 92 1006.2
20260507003506 59 94 1.0 6.0 0.01 0.25 0.25 92 1006.2
20260507003007 59 25 1.0 6.0 0.01 0.25 0.25 92 1006.2
20260507002506 59 74 2.0 7.0 0.01 0.25 0.25 92 1006.1
20260507002007 59 104 1.0 7.0 0.01 0.25 0.25 92 1006.1
20260507001503 59 110 2.0 8.0 0.01 0.25 0.25 92 1006.0
20260507001004 59 83 2.0 8.0 0.01 0.25 0.25 92 1006.0
20260507000507 59 84 2.0 8.0 0.00 0.24 0.24 92 1005.9
20260507000022 59 94 1.0 8.0 0.00 0.24 0.24 92 1005.9
20260506235504 59 119 0.0 7.0 0.00 0.24 0.24 92 1006.0
20260506235006 59 94 1.0 7.0 0.01 0.24 0.24 92 1006.0
20260506234520 59 87 2.0 8.0 0.02 0.24 0.24 92 1006.0
20260506234003 59 118 2.0 8.0 0.03 0.24 0.24 92 1005.9
20260506233507 59 94 1.0 8.0 0.04 0.24 0.24 92 1005.8
20260506233016 59 96 2.0 6.0 0.04 0.24 0.24 92 1005.9
20260506232508 59 90 2.0 7.0 0.04 0.24 0.24 92 1005.9
20260506232003 59 104 2.0 7.0 0.05 0.24 0.24 92 1005.8
20260506231514 59 94 2.0 8.0 0.06 0.24 0.24 92 1005.8
20260506231007 59 96 3.0 8.0 0.06 0.24 0.24 93 1005.9
20260506230504 59 119 1.0 6.0 0.07 0.24 0.24 93 1005.8
20260506230010 59 96 0.0 6.0 0.07 0.24 0.24 93 1005.8
20260506225508 59 115 2.0 6.0 0.07 0.24 0.24 92 1005.9
20260506225011 59 83 2.0 6.0 0.07 0.23 0.23 92 1005.9
20260506224508 59 102 1.0 8.0 0.07 0.22 0.22 92 1006.0
20260506224003 59 104 1.0 8.0 0.06 0.21 0.21 92 1006.0
20260506223506 59 94 3.0 7.0 0.06 0.20 0.20 92 1006.1
20260506223020 59 108 1.0 7.0 0.07 0.20 0.20 92 1006.1
20260506222505 59 64 2.0 7.0 0.08 0.20 0.20 92 1006.1
20260506222010 59 96 3.0 7.0 0.07 0.19 0.19 92 1006.0
20260506221521 59 35 1.0 8.0 0.06 0.18 0.18 92 1006.1
20260506221003 59 121 1.0 8.0 0.06 0.18 0.18 92 1006.1
20260506220503 59 96 2.0 8.0 0.05 0.17 0.17 92 1006.2
20260506220017 59 103 1.0 6.0 0.05 0.17 0.17 91 1006.3
20260506215506 59 57 2.0 8.0 0.05 0.17 0.17 91 1006.3
20260506215004 59 121 2.0 8.0 0.04 0.16 0.16 91 1006.3
20260506214517 59 102 2.0 8.0 0.03 0.15 0.15 91 1006.3
20260506214007 59 116 2.0 8.0 0.04 0.15 0.15 90 1006.4
20260506213502 59 71 2.0 7.0 0.03 0.14 0.14 90 1006.4
20260506213014 60 96 3.0 7.0 0.02 0.13 0.13 90 1006.4
20260506212507 60 98 2.0 9.0 0.01 0.12 0.12 90 1006.3
20260506212010 60 71 0.0 9.0 0.02 0.12 0.12 90 1006.4
20260506211512 60 98 3.0 7.0 0.02 0.12 0.12 90 1006.5
20260506211008 60 71 2.0 9.0 0.02 0.12 0.12 90 1006.6
20260506210509 60 71 2.0 9.0 0.03 0.12 0.12 90 1006.6
20260506210012 60 85 2.0 10.0 0.03 0.12 0.12 90 1006.6
20260506205507 60 85 4.0 10.0 0.04 0.12 0.12 89 1006.7
20260506205005 60 127 2.0 6.0 0.04 0.12 0.12 90 1006.7
20260506204523 60 65 1.0 8.0 0.05 0.12 0.12 90 1006.8
20260506204004 60 62 3.0 8.0 0.04 0.11 0.11 89 1006.9
20260506203507 60 98 3.0 8.0 0.04 0.11 0.11 89 1007.0
20260506203033 60 95 3.0 10.0 0.04 0.11 0.11 89 1007.0
20260506202507 60 82 3.0 12.0 0.04 0.11 0.11 89 1007.0
20260506202006 60 85 2.0 12.0 0.04 0.10 0.10 89 1007.0
20260506201520 60 71 4.0 12.0 0.04 0.10 0.10 89 1007.1
20260506201007 60 90 1.0 8.0 0.04 0.10 0.10 89 1007.0
20260506200505 60 346 2.0 7.0 0.03 0.09 0.09 89 1007.0
20260506200015 60 90 2.0 11.0 0.04 0.09 0.09 88 1007.0
20260506195508 61 104 2.0 13.0 0.03 0.08 0.08 86 1007.0
20260506195011 61 80 5.0 13.0 0.03 0.08 0.08 86 1007.1
20260506194514 61 84 4.0 9.0 0.03 0.07 0.07 86 1007.2
20260506194008 61 98 3.0 7.0 0.04 0.07 0.07 87 1007.2
20260506193508 62 116 0.0 10.0 0.04 0.07 0.07 87 1007.1
20260506193009 62 300 4.0 10.0 0.05 0.07 0.07 85 1007.2
20260506192507 62 329 4.0 9.0 0.06 0.07 0.07 85 1007.1
20260506192014 62 12 2.0 8.0 0.05 0.06 0.06 86 1007.2
20260506191524 62 98 3.0 7.0 0.05 0.06 0.06 87 1007.1
20260506191002 62 70 1.0 6.0 0.05 0.06 0.06 86 1007.2
20260506190507 62 123 3.0 9.0 0.06 0.06 0.06 85 1007.1
20260506190024 62 71 4.0 9.0 0.05 0.05 0.05 83 1007.0
20260506185502 63 117 2.0 8.0 0.05 0.05 0.05 84 1007.0
20260506185005 63 78 1.0 8.0 0.05 0.05 0.05 83 1007.1
20260506184522 63 113 3.0 10.0 0.04 0.04 0.04 80 1007.2
20260506184009 64 122 3.0 13.0 0.03 0.03 0.03 79 1007.3
20260506183507 64 77 6.0 13.0 0.03 0.03 0.03 77 1007.5
20260506183020 65 59 4.0 8.0 0.02 0.02 0.02 76 1007.4
20260506182507 65 118 1.0 4.0 0.01 0.01 0.01 76 1007.7
20260506182004 66 86 1.0 7.0 0.01 0.01 0.01 76 1007.6
20260506181515 66 113 2.0 11.0 0.01 0.01 0.01 72 1007.5
20260506181007 67 114 3.0 11.0 0.01 0.01 0.01 70 1007.7
20260506180509 68 113 3.0 14.0 0.00 0.00 0.00 67 1007.7
20260506180014 69 67 4.0 19.0 0.00 0.00 0.00 64 1007.8
20260506175505 69 127 5.0 19.0 0.00 0.00 0.00 60 1007.7
20260506175012 70 81 7.0 12.0 0.00 0.00 0.00 58 1007.6
20260506174524 70 59 3.0 11.0 0.00 0.00 0.00 57 1007.5
20260506174007 71 80 5.0 11.0 0.00 0.00 0.00 58 1007.6
20260506173506 71 96 2.0 13.0 0.00 0.00 0.00 56 1007.5
20260506173031 71 86 2.0 18.0 0.00 0.00 0.00 55 1007.5
20260506172503 72 85 5.0 18.0 0.00 0.00 0.00 54 1007.4
20260506172009 72 79 3.0 18.0 0.00 0.00 0.00 54 1007.4
20260506171527 72 345 8.0 22.0 0.00 0.00 0.00 53 1007.4
20260506171008 72 95 7.0 22.0 0.00 0.00 0.00 52 1007.3
20260506170507 72 94 4.0 16.0 0.00 0.00 0.00 52 1007.3
20260506170023 72 97 6.0 16.0 0.00 0.00 0.00 53 1007.5
20260506165508 73 80 6.0 16.0 0.00 0.00 0.00 51 1007.5
20260506165007 73 107 4.0 14.0 0.00 0.00 0.00 53 1007.6
20260506164520 73 113 7.0 14.0 0.00 0.00 0.00 52 1007.7
20260506164011 72 98 6.0 15.0 0.00 0.00 0.00 53 1007.5
20260506163506 72 33 2.0 15.0 0.00 0.00 0.00 55 1007.8
20260506163025 71 96 5.0 13.0 0.00 0.00 0.00 56 1007.9
20260506162506 70 137 5.0 16.0 0.00 0.00 0.00 56 1008.0
20260506162011 70 55 5.0 16.0 0.00 0.00 0.00 56 1008.1
20260506161515 71 97 1.0 12.0 0.00 0.00 0.00 58 1008.2
20260506161010 71 96 5.0 10.0 0.00 0.00 0.00 57 1008.2
20260506160513 70 101 3.0 11.0 0.00 0.00 0.00 57 1008.3
20260506160027 71 93 4.0 13.0 0.00 0.00 0.00 57 1008.4
20260506155506 70 60 2.0 15.0 0.00 0.00 0.00 57 1008.5
20260506155009 70 117 7.0 15.0 0.00 0.00 0.00 58 1008.6
20260506154527 70 92 4.0 12.0 0.00 0.00 0.00 59 1008.6
20260506154006 70 86 2.0 11.0 0.00 0.00 0.00 59 1008.7
20260506153510 70 87 3.0 11.0 0.00 0.00 0.00 60 1008.8
20260506153024 69 102 4.0 11.0 0.00 0.00 0.00 60 1008.8
20260506152508 69 61 3.0 11.0 0.00 0.00 0.00 61 1008.8
20260506152006 69 35 3.0 11.0 0.00 0.00 0.00 61 1009.0
20260506151526 69 83 2.0 13.0 0.00 0.00 0.00 61 1009.1
20260506151008 69 101 8.0 13.0 0.00 0.00 0.00 61 1009.1
20260506150510 69 59 4.0 13.0 0.00 0.00 0.00 61 1009.2
20260506150020 69 92 6.0 13.0 0.00 0.00 0.00 62 1009.4
20260506145511 69 105 2.0 10.0 0.00 0.00 0.00 64 1009.3
20260506145009 68 123 3.0 14.0 0.00 0.00 0.00 64 1009.2
20260506144518 68 113 0.0 14.0 0.00 0.00 0.00 65 1009.4
20260506144006 68 111 3.0 14.0 0.00 0.00 0.00 65 1009.6
20260506143508 67 74 6.0 14.0 0.00 0.00 0.00 65 1009.6
20260506143027 67 96 4.0 10.0 0.00 0.00 0.00 65 1009.6
20260506142513 67 83 4.0 12.0 0.00 0.00 0.00 66 1009.6
20260506142010 67 117 5.0 12.0 0.00 0.00 0.00 66 1009.4
20260506141531 67 101 5.0 11.0 0.00 0.00 0.00 66 1009.4
20260506141011 67 87 3.0 13.0 0.00 0.00 0.00 66 1009.3
20260506140506 67 266 5.0 13.0 0.00 0.00 0.00 66 1009.2
20260506140028 67 134 2.0 13.0 0.00 0.00 0.00 66 1009.2
20260506135513 67 84 3.0 13.0 0.00 0.00 0.00 67 1009.1
20260506135008 67 68 3.0 10.0 0.00 0.00 0.00 67 1009.3
20260506134524 67 291 2.0 10.0 0.00 0.00 0.00 67 1009.5
20260506134011 67 67 4.0 13.0 0.00 0.00 0.00 67 1009.4
20260506133506 67 55 5.0 13.0 0.00 0.00 0.00 66 1009.5
20260506133022 67 294 3.0 14.0 0.00 0.00 0.00 67 1009.5